FENGYUN 1C DEB

Satellite information

Favourite Embed

Satellite Type and Status

DEBRISIN ORBIT

Key statistics

Satellite FENGYUN 1C DEB at a glance.

Uptime

9664

Days in orbit

Revolutions

≈ 14.5

Per day

Orbit

SSO

Sun Synchronous Orbit

Inclination

98.6

Latest

Satellite identification and parameters

Extended collection of information and parameters for FENGYUN 1C DEB.

Object identification

Identified? True

Debris? True

Object name: FENGYUN 1C DEB

International designator: 1999-025ZN

Object number (NORAD): 30301

Object ID (CCSDS): 30301

Country: PEOPLES REPUBLIC OF CHINA (PRC)

Current information (Y/N): Y

RCS size: SMALL

Orbital parameters

Period: 99.247 minutes

Inclination: 98.6394 deg

SMA: 7100.753 km

Apoapsis: 771.602 km

Periapsis: 673.633 km

RAAN: 86.0703 deg

Eccentricy: 0.0068985

Argument of periapsis: 84.5473 deg

Mean anomaly: 306.4893 deg

Mean motion: 14.50929118 rev/day

Mean motion (dot): 0.00020395 rev/day2

B* drag term: 0.0050059 1/REarth

Two-line elements (TLE)

Creation date: Oct. 23, 2025, 10:26 p.m.

Reference frame: TEME

Reference center: EARTH

Epoch: Oct. 23, 2025, 8:52 a.m. UTC

TLE line 0: 0 FENGYUN 1C DEB

TLE line 1: 1 30301U 99025ZN 25296.36976919 .00020395 00000-0 50059-2 0 9996

TLE line 2: 2 30301 98.6394 86.0703 0068985 84.5473 306.4893 14.50929118964865

Live tracking on map

Real-time ground track for satellite FENGYUN 1C DEB.

In-orbit conjunctions

A list of the most updated potential collisions computed for object FENGYUN 1C DEB.

Target Orbit TCA Probability of collision Miss distance Type
COSMOS 1125 LEO 2025-06-14 12:14:23 0.000228355 701.0 (m) PAYLOAD
COSMOS 1275 DEB LEO 2024-08-22 20:50:50 0.00010039 168.0 (m) DEBRIS

Associated space launch

Chinese polar orbiting meteorological satellite

FENGYUN 1C DEB was lifted into orbit during the mission ‘Long March 4B | Feng Yun 1C’, on board a Long March 4B space rocket.

The launch took place on May 10, 1999, 1:33 a.m. from Launch Complex 7.

For more information about the launch, click the button.

Launch to space Long March 4B | Feng Yun 1C
Long March 4B | Feng Yun 1C

Agency: N/A

Status: Launch Successful

Launch date: May 10, 1999, 1:33 a.m. UTC

Rocket: Long March 4B

Launch pad: Launch Complex 7

Location: Taiyuan Satellite Launch Center, People's Republic of China

...

Latest news about this satellite

There are no fresh news available about this satellite. Check back as we update our databases every day.


Newsletter sign-up

Weekly statistics, charts and insights to help you stay on top of the space industry.